TimeCDT,TemperatureF,Dew PointF,Humidity,Sea Level PressureIn,VisibilityMPH,Wind Direction,Wind SpeedMPH,Gust SpeedMPH,PrecipitationIn,Events,Conditions,WindDirDegrees,DateUTC
12:35 AM,50.9,44.6,79,29.81,10.0,West,9.2,-,N/A,,Overcast,280,2012-10-15 05:35:00
12:55 AM,50.4,44.2,80,29.81,10.0,West,17.3,20.7,N/A,,Overcast,280,2012-10-15 05:55:00
1:15 AM,50.0,44.6,82,29.82,10.0,WNW,10.4,18.4,N/A,,Overcast,290,2012-10-15 06:15:00
1:35 AM,49.6,44.2,82,29.83,10.0,WNW,13.8,-,N/A,,Overcast,290,2012-10-15 06:35:00
1:55 AM,49.5,44.2,82,29.83,10.0,WNW,10.4,-,N/A,,Overcast,290,2012-10-15 06:55:00
2:15 AM,49.3,44.2,83,29.83,10.0,West,11.5,-,N/A,,Overcast,280,2012-10-15 07:15:00
2:35 AM,49.1,44.1,83,29.83,10.0,West,13.8,17.3,N/A,,Overcast,270,2012-10-15 07:35:00
2:55 AM,48.7,43.7,83,29.83,10.0,West,11.5,-,N/A,,Overcast,280,2012-10-15 07:55:00
3:15 AM,47.3,43.2,86,29.83,10.0,West,12.7,-,N/A,,Mostly Cloudy,270,2012-10-15 08:15:00
3:35 AM,46.4,42.8,87,29.83,10.0,West,11.5,16.1,N/A,,Unknown,280,2012-10-15 08:35:00
3:55 AM,45.5,42.3,88,29.83,10.0,West,10.4,-,N/A,,Unknown,280,2012-10-15 08:55:00
4:15 AM,45.0,41.7,88,29.83,10.0,West,10.4,-,N/A,,Unknown,280,2012-10-15 09:15:00
4:35 AM,44.6,41.2,88,29.83,10.0,West,9.2,17.3,N/A,,Clear,280,2012-10-15 09:35:00
4:55 AM,44.6,40.6,86,29.84,10.0,West,10.4,-,N/A,,Clear,280,2012-10-15 09:55:00
5:15 AM,44.6,40.5,85,29.85,10.0,West,9.2,-,N/A,,Clear,280,2012-10-15 10:15:00
5:35 AM,43.9,40.1,87,29.85,10.0,West,8.1,-,N/A,,Clear,270,2012-10-15 10:35:00
5:55 AM,43.7,40.1,87,29.85,10.0,West,9.2,-,N/A,,Clear,280,2012-10-15 10:55:00
6:15 AM,43.2,39.7,88,29.86,10.0,West,8.1,-,N/A,,Clear,280,2012-10-15 11:15:00
6:35 AM,42.8,39.6,88,29.86,10.0,West,9.2,-,N/A,,Clear,270,2012-10-15 11:35:00
6:55 AM,42.1,39.2,90,29.87,10.0,West,6.9,-,N/A,,Clear,270,2012-10-15 11:55:00
7:15 AM,42.1,39.4,90,29.87,10.0,West,9.2,-,N/A,,Clear,270,2012-10-15 12:15:00
7:35 AM,43.0,40.1,90,29.88,10.0,West,8.1,-,N/A,,Clear,270,2012-10-15 12:35:00
7:55 AM,43.9,40.3,87,29.89,7.0,West,9.2,-,N/A,,Clear,270,2012-10-15 12:55:00
8:15 AM,45.1,40.5,84,29.90,7.0,West,10.4,-,N/A,,Clear,280,2012-10-15 13:15:00
8:35 AM,46.4,41.0,81,29.90,10.0,WNW,9.2,-,N/A,,Clear,290,2012-10-15 13:35:00
8:55 AM,46.8,40.5,79,29.90,10.0,WNW,11.5,-,N/A,,Clear,300,2012-10-15 13:55:00
9:15 AM,47.7,40.6,77,29.92,7.0,WNW,9.2,17.3,N/A,,Clear,300,2012-10-15 14:15:00
9:35 AM,49.1,40.5,72,29.92,10.0,WNW,10.4,16.1,N/A,,Clear,300,2012-10-15 14:35:00
9:55 AM,50.9,39.6,65,29.92,10.0,WNW,11.5,17.3,N/A,,Clear,300,2012-10-15 14:55:00
10:15 AM,51.8,38.7,61,29.93,10.0,WNW,13.8,18.4,N/A,,Clear,300,2012-10-15 15:15:00
10:35 AM,52.7,37.9,57,29.93,10.0,WNW,12.7,18.4,N/A,,Clear,300,2012-10-15 15:35:00
10:55 AM,54.3,39.0,56,29.94,10.0,WNW,12.7,-,N/A,,Clear,300,2012-10-15 15:55:00
11:15 AM,54.3,37.0,52,29.94,10.0,WNW,12.7,-,N/A,,Clear,300,2012-10-15 16:15:00
11:35 AM,55.6,36.1,48,29.94,10.0,NW,16.1,20.7,N/A,,Clear,310,2012-10-15 16:35:00
11:55 AM,56.7,36.5,47,29.94,10.0,WNW,13.8,19.6,N/A,,Clear,300,2012-10-15 16:55:00
12:15 PM,57.6,36.1,45,29.94,10.0,WNW,12.7,19.6,N/A,,Clear,300,2012-10-15 17:15:00
12:35 PM,57.9,35.8,44,29.94,10.0,NW,12.7,18.4,N/A,,Unknown,310,2012-10-15 17:35:00
12:55 PM,59.0,35.6,42,29.93,10.0,WNW,16.1,19.6,N/A,,Unknown,300,2012-10-15 17:55:00
1:15 PM,59.2,35.8,42,29.93,10.0,NW,16.1,24.2,N/A,,Unknown,310,2012-10-15 18:15:00
1:35 PM,59.9,36.3,41,29.93,10.0,NW,18.4,23.0,N/A,,Clear,310,2012-10-15 18:35:00
1:55 PM,59.9,36.5,42,29.92,10.0,NW,10.4,15.0,N/A,,Clear,310,2012-10-15 18:55:00
2:15 PM,59.9,36.3,41,29.93,10.0,NNW,15.0,23.0,N/A,,Clear,330,2012-10-15 19:15:00
2:35 PM,60.3,37.2,42,29.93,10.0,WNW,13.8,19.6,N/A,,Clear,300,2012-10-15 19:35:00
2:55 PM,59.9,37.0,43,29.93,10.0,NW,12.7,20.7,N/A,,Clear,310,2012-10-15 19:55:00
3:15 PM,60.4,36.9,42,29.93,10.0,NW,15.0,19.6,N/A,,Clear,310,2012-10-15 20:15:00
3:35 PM,60.3,37.4,43,29.93,10.0,NW,12.7,-,N/A,,Clear,310,2012-10-15 20:35:00
3:55 PM,60.4,37.6,43,29.93,10.0,NW,11.5,17.3,N/A,,Unknown,310,2012-10-15 20:55:00
4:15 PM,60.1,37.0,42,29.93,10.0,NW,9.2,-,N/A,,Unknown,310,2012-10-15 21:15:00
4:35 PM,59.4,37.9,45,29.94,10.0,WNW,6.9,17.3,N/A,,Clear,300,2012-10-15 21:35:00
4:55 PM,58.6,38.1,46,29.93,10.0,NW,6.9,-,N/A,,Clear,310,2012-10-15 21:55:00
5:15 PM,57.4,38.7,50,29.93,10.0,NW,6.9,-,N/A,,Clear,320,2012-10-15 22:15:00
5:35 PM,55.9,39.7,55,29.93,10.0,NW,5.8,-,N/A,,Clear,310,2012-10-15 22:35:00
5:55 PM,54.5,39.7,57,29.94,10.0,WNW,4.6,-,N/A,,Clear,300,2012-10-15 22:55:00
6:15 PM,53.6,39.2,58,29.93,10.0,WNW,4.6,-,N/A,,Clear,300,2012-10-15 23:15:00
6:35 PM,51.6,39.4,63,29.93,10.0,Calm,Calm,-,N/A,,Clear,0,2012-10-15 23:35:00
6:55 PM,51.8,39.4,63,29.93,10.0,Calm,Calm,-,N/A,,Clear,0,2012-10-15 23:55:00
7:15 PM,48.7,40.3,73,29.94,10.0,Calm,Calm,-,N/A,,Clear,0,2012-10-16 00:15:00
7:35 PM,48.4,40.3,74,29.94,10.0,Calm,Calm,-,N/A,,Clear,0,2012-10-16 00:35:00
7:55 PM,48.6,40.5,74,29.95,10.0,Calm,Calm,-,N/A,,Clear,0,2012-10-16 00:55:00
8:15 PM,46.9,40.3,78,29.94,10.0,Calm,Calm,-,N/A,,Clear,0,2012-10-16 01:15:00
8:35 PM,47.5,40.1,76,29.94,10.0,Calm,Calm,-,N/A,,Clear,0,2012-10-16 01:35:00
8:55 PM,46.2,39.9,79,29.94,10.0,Calm,Calm,-,N/A,,Clear,0,2012-10-16 01:55:00
9:15 PM,44.8,39.9,83,29.95,10.0,Calm,Calm,-,N/A,,Clear,0,2012-10-16 02:15:00
9:35 PM,44.6,40.8,87,29.95,10.0,Calm,Calm,-,N/A,,Clear,0,2012-10-16 02:35:00
9:55 PM,43.9,39.9,86,29.95,10.0,Calm,Calm,-,N/A,,Clear,0,2012-10-16 02:55:00
10:15 PM,44.8,40.1,84,29.95,10.0,Calm,Calm,-,N/A,,Clear,0,2012-10-16 03:15:00
10:35 PM,43.5,39.0,84,29.95,10.0,Calm,Calm,-,N/A,,Unknown,0,2012-10-16 03:35:00
10:55 PM,42.4,38.8,87,29.95,10.0,Calm,Calm,-,N/A,,Unknown,0,2012-10-16 03:55:00
11:15 PM,42.1,39.2,90,29.95,10.0,Calm,Calm,-,N/A,,Unknown,0,2012-10-16 04:15:00
11:35 PM,42.6,39.7,90,29.95,10.0,Calm,Calm,-,N/A,,Clear,0,2012-10-16 04:35:00
11:55 PM,41.0,39.2,93,29.95,10.0,Calm,Calm,-,N/A,,Clear,0,2012-10-16 04:55:00